sat.trackr.live / text

‹ back to catalog

GSAT0201 (GALILEO 5)

NORAD 40128 · 2014-050A

PAYLOAD ACTIVE UNKNOWN

§ Identity

Operator
Country
ESA
Launch date
2014-08-22
Launch site
FRGUI
Launch vehicle
Mass (kg)
RCS (m²)
4.12

Purposes: earth_obs, nav

External: N2YO · Heavens-Above · Gunter

§ Orbital elements

Epoch: 2026-05-23T02:01:49.135008Z

Period
776.20 min
Inclination
48.9035°
Eccentricity
0.1670806
Mean motion
1.85519899 rev/d
Perigee alt
16,924.8 km
Apogee alt
26,273.8 km
Semi-major
27,977.5 km
B*
0.0000e+0
RAAN
274.4648°
Arg perigee
178.4149°
Mean anomaly
182.2129°
Rev number
7,785

§ Raw data

GSAT0201 (GALILEO 5)1 40128U 14050A   26143.08459647 -.00000079  00000+0  00000+0 0  99992 40128  48.9035 274.4648 1670806 178.4149 182.2129  1.85519899 77850

JSON: /api/v1/satellites/40128 · /tle

For live sub-satellite position, see the globe view (requires WebGL).

§ Visibility from observer

Set your observer location to see the next 7 days of passes ≥ 10°. The values pass through the URL so the page stays shareable.

No JS? Fill the form by hand. The geolocation button needs JavaScript.